Wind_Speed
7 7 8 10 11 13 15 16 17 18 19 19 19 19 19 19 19 19 21 21 21 21 21 21 21 21 21 21 21 21 21 20 21 22 22 21 20 19 19 19 20 20 21 21
8 10 11 12 13 15 16 18 18 19 20 21 21 21 21 21 22 22 20 20 20 20 21 21 21 20 21 21 22 21 21 20 20 20 20 20 19 19 19 19 19 21 21 21
10 12 13 14 15 16 17 18 19 20 20 21 22 20 21 22 22 21 21 20 20 20 20 20 20 20 21 22 21 20 20 18 18 18 19 18 18 18 18 19 19 20 20 21
13 14 15 15 16 18 18 19 21 21 21 22 23 23 21 22 23 23 22 21 20 20 20 20 21 22 22 22 20 19 19 19 19 19 19 18 18 19 19 20 21 21 20 21
14 15 16 17 18 19 20 21 22 22 22 23 24 25 22 22 23 23 22 21 22 22 22 22 22 22 23 22 21 19 20 20 19 19 20 20 20 19 19 21 21 22 22 22
15 16 18 19 20 21 22 23 24 24 23 24 24 24 22 22 22 22 21 20 21 22 22 22 22 23 23 22 21 20 20 20 20 20 20 21 20 20 20 21 21 22 21 21
17 18 19 19 20 22 23 24 25 26 25 24 22 23 22 22 22 22 21 21 21 21 21 22 23 22 22 22 21 20 20 20 20 20 21 21 21 22 22 22 22 22 22 22
17 18 19 20 21 23 24 25 26 27 27 25 22 21 21 22 22 22 21 20 20 19 19 21 22 21 21 21 20 20 20 21 21 21 21 21 21 22 22 22 23 23 22 22
18 20 21 21 21 23 24 24 25 26 25 24 22 21 21 21 22 22 21 20 20 20 19 20 20 20 20 20 19 20 21 21 20 21 21 21 21 21 21 22 22 21 21 22
19 20 20 21 21 22 23 24 24 23 23 21 20 20 21 21 21 20 21 20 20 19 19 19 19 18 19 19 19 19 19 19 20 20 20 20 20 20 21 20 20 21 21 22
19 20 20 20 20 21 22 22 22 21 20 20 19 19 20 21 21 21 21 21 20 20 20 19 18 18 18 18 18 18 18 18 18 19 20 19 19 20 20 20 20 20 21 21
19 19 19 19 20 21 21 20 20 19 19 19 19 18 18 19 21 21 21 20 21 20 20 20 19 18 18 17 17 17 17 18 18 17 18 18 18 19 20 20 20 20 21 21
19 20 20 20 19 19 19 19 19 18 18 19 19 18 18 19 20 19 18 19 19 19 19 18 17 17 16 16 16 16 15 17 17 17 17 18 18 19 19 19 19 20 20 20
19 20 21 21 20 18 17 17 18 18 19 19 18 18 18 18 18 18 17 16 17 16 16 16 15 15 14 15 15 14 14 14 15 15 16 17 17 17 17 17 18 18 19 19
20 20 21 21 19 17 16 16 17 17 18 19 18 17 17 17 17 17 17 16 14 14 14 14 14 13 13 13 13 12 12 13 13 14 15 16 15 15 15 16 16 17 17 18
21 21 21 19 17 16 16 16 18 18 18 19 19 19 18 17 17 16 15 14 13 13 13 13 13 12 12 12 11 11 11 11 13 14 13 13 14 14 14 15 16 16 16 16
21 21 20 18 16 16 16 17 17 17 19 19 19 19 19 18 17 16 15 13 12 12 13 13 12 11 11 10 10 10 11 12 12 13 13 13 13 14 15 16 16 16 15 15
21 20 19 17 16 16 17 17 18 18 19 20 19 19 18 18 16 15 14 13 12 12 12 12 11 10 11 11 10 11 12 12 12 13 13 12 12 13 14 15 15 16 16 15
20 19 18 18 17 17 17 18 19 19 19 19 18 18 17 16 15 14 13 12 12 11 11 10 10 11 11 10 11 11 11 11 12 12 13 13 13 13 14 15 15 16 16 16
18 18 19 19 18 18 18 19 20 20 19 18 18 16 15 15 14 13 12 12 11 11 11 11 11 11 11 11 11 11 11 11 12 12 13 14 14 14 14 15 15 15 15 16
18 18 18 18 18 18 19 20 21 20 19 18 17 16 15 15 14 13 13 12 12 11 11 11 12 12 12 12 12 12 11 12 12 13 13 14 14 14 14 15 14 15 16 17
19 18 18 18 18 19 19 20 19 19 18 18 17 17 16 15 15 14 13 13 12 11 12 12 12 12 12 12 12 12 12 12 13 13 14 14 14 14 15 15 15 16 16 17
19 18 18 18 18 19 19 19 18 17 17 17 17 17 16 16 15 14 14 13 12 12 12 12 12 12 12 12 13 12 12 12 12 13 14 14 14 15 15 15 16 16 17 18
19 19 19 19 19 19 18 17 18 18 18 18 18 18 17 16 15 15 14 13 12 11 11 11 11 11 12 12 11 11 11 12 12 13 13 14 14 15 15 16 17 17 18 19
20 20 20 20 20 19 18 18 18 18 18 17 18 18 17 16 16 15 14 13 12 12 11 11 11 12 11 11 11 11 12 12 12 13 13 14 14 15 16 16 17 17 18 19
20 21 21 21 20 20 19 18 18 18 18 17 17 18 17 16 15 14 14 13 12 12 12 11 11 11 11 11 11 11 12 12 12 13 13 14 14 15 16 16 17 17 18 19
Wind_Direction
277 277 281 286 289 293 296 296 293 294 295 294 294 294 293 289 289 289 285 282 281 282 286 289 290 291 294 296 295 292 287 285 285 288 287 284 285 286 284 284 284 284 286 287
284 285 286 287 291 294 296 297 296 294 293 296 295 295 294 293 291 290 290 285 283 283 284 285 286 288 290 292 291 287 284 281 285 287 289 287 287 286 284 286 284 284 283 284
289 289 288 289 291 295 297 297 298 295 293 297 298 296 294 294 294 294 291 288 284 282 284 284 285 285 286 289 292 289 284 284 285 283 284 288 286 288 287 285 287 289 288 286
291 292 292 294 295 298 300 300 300 298 296 297 298 297 296 295 297 298 295 290 287 284 284 285 285 284 285 291 293 289 286 285 284 283 284 288 288 290 290 289 291 292 290 288
291 293 294 297 299 299 300 302 302 300 298 297 297 296 297 296 297 297 296 292 285 284 282 283 283 283 286 289 290 287 285 286 286 287 288 289 291 293 292 292 293 292 288 290
297 296 295 296 299 301 302 303 304 303 302 299 299 297 299 299 299 299 294 291 287 285 283 283 285 284 286 286 285 284 287 289 288 290 290 290 291 291 290 291 290 292 291 294
301 298 298 300 300 301 303 305 306 305 304 303 302 300 302 303 303 303 299 295 292 289 285 286 286 287 287 286 285 283 287 287 287 287 287 288 289 289 289 289 290 293 293 294
308 303 302 303 303 304 306 308 309 307 307 306 305 304 304 306 306 304 303 298 295 293 288 288 291 293 292 289 285 284 285 286 284 286 287 287 288 290 291 290 291 294 293 294
310 307 307 305 306 307 309 309 310 308 308 307 306 306 306 307 306 302 300 298 296 294 291 291 294 293 292 289 287 286 285 283 284 285 286 288 290 289 290 291 291 293 294 294
312 311 310 308 308 309 311 311 310 310 311 310 309 309 311 310 307 303 299 297 293 290 291 294 297 296 292 290 289 287 284 283 284 285 286 290 291 291 291 291 291 292 292 293
315 314 316 313 311 311 313 312 310 309 311 311 311 312 313 312 311 308 304 297 295 294 295 295 297 297 294 292 293 293 289 287 287 287 288 288 291 291 291 291 293 294 294 295
317 318 323 321 317 316 316 316 313 312 314 311 311 312 313 312 311 308 304 299 298 297 297 294 295 298 297 296 295 292 289 289 288 289 291 289 291 292 293 292 295 297 297 297
319 320 321 323 321 320 319 319 318 314 313 313 309 312 315 314 312 309 304 301 301 301 300 299 299 300 301 302 299 295 294 293 294 294 293 293 294 296 295 294 298 300 299 298
320 320 320 322 323 322 322 322 321 316 314 314 314 312 312 311 310 310 308 307 304 302 306 307 308 309 308 309 306 300 299 299 301 301 299 298 299 301 301 301 302 303 301 301
318 319 320 321 323 323 324 325 323 320 318 316 319 317 318 317 314 314 313 311 310 311 313 313 315 316 314 312 310 306 303 304 306 308 307 306 307 307 307 308 308 308 308 308
315 317 319 319 320 321 322 323 324 323 322 320 318 317 316 318 319 319 318 315 312 315 317 316 316 319 316 314 313 311 312 313 312 313 312 312 312 311 310 310 314 315 312 311
313 316 318 317 317 318 321 322 323 324 324 322 320 319 317 317 318 317 317 317 316 316 318 319 318 320 321 318 316 316 317 321 321 320 319 317 317 315 312 314 318 318 317 316
313 315 316 315 315 319 321 321 320 320 322 322 322 321 320 317 317 313 311 310 309 311 314 316 318 320 321 318 317 315 317 321 322 323 324 319 318 320 318 319 320 321 321 321
311 310 311 312 314 318 319 318 318 319 320 321 321 322 320 319 317 313 307 304 308 307 310 312 312 314 319 320 320 318 318 321 323 325 324 318 318 318 319 321 321 322 325 325
308 307 307 308 311 315 316 316 316 318 321 323 322 322 322 320 317 314 308 303 303 304 305 307 310 312 315 317 319 320 319 321 324 324 323 323 324 322 322 324 325 326 329 329
304 304 304 306 307 311 312 313 315 318 321 321 320 321 323 319 314 311 308 304 302 303 304 306 307 309 309 311 315 318 318 319 322 324 324 325 328 326 326 328 329 330 330 330
301 301 304 306 307 310 310 310 313 315 317 318 317 320 320 317 314 312 310 307 301 301 303 303 303 305 308 310 314 316 318 320 321 323 323 325 327 326 327 329 328 328 329 330
298 300 302 304 305 306 307 308 309 312 315 316 316 317 315 314 314 311 307 304 301 302 300 298 299 301 306 311 313 313 316 318 319 321 323 327 329 328 328 329 329 327 328 330
295 297 298 298 301 303 302 303 305 308 312 314 315 315 312 311 311 310 306 305 302 301 299 298 295 297 302 307 310 314 315 316 318 321 322 325 327 328 329 328 327 328 330 331
292 295 296 294 294 295 297 301 303 304 307 310 309 309 308 307 308 308 306 301 299 298 295 296 294 296 298 303 309 311 313 314 316 319 321 324 327 327 328 329 328 329 331 332
293 294 293 292 291 292 295 297 299 300 302 304 304 306 305 303 302 304 302 298 297 297 296 297 296 298 301 304 308 310 311 312 315 318 320 322 325 326 327 328 328 330 332 333
Height
5855 5855 5853 5852 5851 5849 5847 5846 5845 5843 5841 5839 5837 5836 5834 5832 5831 5829 5828 5826 5826 5825 5825 5824 5822 5820 5819 5818 5816 5814 5813 5811 5810 5809 5808 5807 5806 5805 5805 5804 5803 5803 5801 5799
5854 5853 5852 5850 5849 5847 5845 5844 5842 5841 5838 5836 5834 5832 5830 5828 5826 5824 5822 5821 5821 5820 5820 5818 5817 5816 5815 5813 5811 5810 5808 5806 5805 5805 5804 5802 5802 5801 5800 5799 5799 5798 5796 5795
5852 5851 5849 5848 5847 5845 5843 5841 5839 5837 5834 5832 5830 5829 5826 5824 5821 5820 5818 5817 5816 5815 5814 5813 5812 5811 5809 5807 5806 5804 5802 5802 5801 5800 5799 5798 5798 5797 5795 5794 5794 5793 5791 5790
5849 5848 5846 5845 5844 5842 5840 5838 5835 5832 5830 5828 5827 5823 5822 5819 5817 5815 5813 5812 5811 5810 5809 5808 5807 5806 5804 5803 5801 5800 5799 5797 5796 5796 5795 5795 5794 5793 5791 5789 5788 5788 5786 5784
5847 5845 5843 5842 5840 5838 5836 5834 5831 5828 5826 5824 5822 5819 5818 5814 5812 5810 5808 5807 5806 5805 5805 5804 5802 5800 5799 5797 5796 5795 5794 5793 5792 5791 5790 5789 5789 5788 5787 5785 5784 5783 5781 5779
5844 5842 5840 5838 5836 5834 5832 5830 5827 5824 5822 5820 5818 5815 5813 5810 5807 5806 5804 5803 5801 5800 5799 5798 5796 5794 5793 5792 5791 5790 5789 5788 5787 5786 5785 5784 5784 5782 5782 5781 5779 5778 5776 5774
5841 5838 5836 5834 5832 5830 5827 5825 5822 5819 5817 5815 5813 5810 5808 5805 5802 5800 5799 5797 5796 5794 5793 5792 5791 5789 5788 5787 5785 5785 5784 5783 5782 5781 5780 5779 5778 5777 5776 5775 5774 5772 5771 5769
5837 5835 5832 5829 5827 5824 5822 5820 5817 5814 5810 5809 5807 5805 5804 5800 5798 5796 5794 5792 5791 5789 5788 5787 5785 5784 5782 5781 5780 5780 5778 5777 5776 5776 5774 5773 5772 5771 5770 5769 5767 5765 5764 5763
5832 5830 5828 5825 5822 5820 5817 5814 5812 5808 5805 5803 5802 5801 5799 5796 5794 5792 5789 5788 5786 5785 5783 5782 5780 5778 5777 5776 5775 5773 5773 5772 5770 5770 5769 5768 5767 5765 5764 5762 5761 5760 5758 5757
5828 5826 5824 5821 5818 5816 5813 5810 5806 5803 5800 5798 5798 5796 5795 5792 5790 5788 5786 5784 5782 5780 5779 5777 5775 5773 5772 5771 5769 5768 5766 5766 5765 5764 5763 5762 5761 5760 5758 5757 5755 5754 5753 5751
5825 5823 5820 5817 5814 5812 5809 5805 5801 5799 5796 5795 5793 5794 5790 5788 5785 5783 5781 5779 5777 5776 5774 5772 5770 5768 5767 5766 5764 5763 5761 5760 5760 5759 5758 5757 5755 5754 5753 5751 5750 5749 5747 5745
5822 5819 5816 5814 5811 5808 5804 5801 5798 5796 5794 5791 5789 5792 5786 5784 5782 5779 5777 5775 5773 5771 5769 5767 5765 5763 5762 5760 5760 5758 5757 5756 5754 5753 5752 5752 5750 5749 5747 5746 5744 5743 5741 5739
5819 5816 5813 5811 5810 5805 5801 5797 5795 5793 5791 5788 5786 5788 5783 5780 5778 5775 5773 5771 5769 5767 5765 5763 5761 5759 5757 5756 5755 5754 5753 5752 5750 5749 5747 5746 5745 5744 5742 5741 5739 5737 5736 5734
5815 5813 5811 5808 5804 5801 5798 5795 5792 5790 5787 5785 5783 5782 5780 5777 5774 5772 5770 5767 5765 5763 5761 5759 5757 5755 5754 5753 5752 5751 5750 5748 5747 5745 5744 5742 5741 5739 5737 5736 5734 5732 5730 5728
5812 5810 5807 5804 5800 5798 5795 5793 5790 5788 5785 5782 5780 5778 5776 5773 5770 5768 5766 5764 5762 5760 5759 5757 5755 5753 5752 5750 5749 5748 5747 5745 5744 5742 5741 5739 5737 5735 5734 5732 5730 5728 5726 5723
5809 5806 5804 5801 5798 5795 5793 5791 5788 5786 5783 5780 5778 5776 5773 5770 5767 5765 5763 5761 5759 5758 5756 5755 5753 5751 5750 5749 5748 5746 5745 5743 5741 5740 5738 5736 5735 5733 5731 5729 5727 5724 5722 5720
5806 5803 5800 5798 5795 5793 5791 5789 5786 5784 5781 5778 5775 5773 5770 5767 5765 5763 5761 5759 5757 5756 5755 5753 5752 5750 5749 5747 5746 5745 5743 5741 5740 5738 5736 5734 5732 5730 5728 5726 5724 5721 5719 5716
5803 5800 5797 5795 5793 5791 5791 5786 5784 5781 5778 5775 5772 5769 5767 5764 5762 5760 5758 5757 5756 5755 5753 5752 5750 5749 5747 5746 5744 5743 5741 5740 5738 5736 5734 5732 5730 5728 5726 5723 5721 5718 5716 5714
5799 5797 5794 5792 5790 5788 5787 5784 5781 5778 5775 5772 5769 5767 5764 5762 5760 5758 5756 5754 5753 5752 5751 5750 5748 5747 5746 5744 5743 5741 5740 5738 5736 5734 5732 5730 5728 5726 5723 5721 5718 5716 5714 5711
5796 5793 5792 5789 5787 5785 5784 5781 5777 5776 5772 5769 5766 5764 5762 5759 5758 5756 5754 5752 5751 5750 5749 5748 5746 5745 5744 5743 5741 5740 5738 5736 5735 5733 5730 5728 5726 5723 5721 5719 5716 5714 5711 5709
5792 5790 5788 5786 5783 5782 5780 5777 5775 5773 5771 5767 5763 5761 5759 5756 5755 5753 5751 5749 5748 5747 5747 5746 5744 5743 5742 5741 5740 5738 5737 5735 5733 5731 5729 5726 5724 5722 5719 5717 5714 5712 5709 5706
5788 5786 5784 5783 5781 5780 5776 5773 5771 5769 5766 5763 5761 5758 5756 5754 5752 5750 5748 5747 5745 5745 5744 5743 5742 5741 5740 5738 5737 5736 5735 5733 5731 5729 5727 5725 5722 5720 5717 5715 5712 5709 5707 5704
5783 5782 5780 5779 5779 5775 5772 5769 5767 5765 5763 5760 5758 5756 5753 5751 5749 5747 5745 5744 5742 5742 5741 5740 5739 5738 5737 5736 5735 5733 5732 5731 5729 5727 5725 5723 5720 5717 5715 5712 5710 5707 5704 5701
5779 5777 5776 5774 5773 5770 5768 5766 5764 5762 5760 5757 5755 5753 5750 5748 5746 5744 5742 5741 5740 5739 5738 5737 5737 5736 5735 5734 5732 5731 5730 5728 5727 5725 5723 5721 5718 5715 5712 5710 5707 5704 5702 5698
5774 5772 5771 5769 5768 5766 5764 5762 5760 5758 5756 5754 5752 5750 5748 5746 5743 5741 5740 5738 5737 5737 5736 5735 5734 5733 5732 5731 5730 5729 5727 5726 5724 5722 5720 5718 5716 5713 5710 5708 5705 5702 5699 5695
5769 5767 5765 5764 5763 5761 5760 5758 5757 5755 5753 5751 5749 5747 5745 5743 5741 5739 5737 5736 5735 5734 5733 5732 5731 5730 5729 5729 5727 5726 5725 5723 5721 5720 5718 5716 5713 5711 5708 5705 5703 5700 5697 5693